User: anonymous   Login
Location: Caltech
(34.1382°N, 118.1253°W)
Time: 18:38:16
(UTC-07:00)
Language:

ALOS - Orbit

View from above orbital plane
View from above orbital plane
View from above satellite
View from above satellite

Ground track
Ground track

The orbit data is extracted from the following two-line orbital elements,

1 28931U 06002A   14295.47992166  .00001614  00000-0  33548-3 0   827
2 28931 097.9677 349.0115 0002262 118.7480 330.3841 14.61377066465912
Epoch (UTC): 22 October 2014 11:31:05
Eccentricity: 0.0002262
inclination: 97.9677°
perigee height: 687 km
apogee height: 690 km
right ascension of ascending node: 349.0115°
argument of perigee: 118.7480°
revolutions per day: 14.61377066
mean anomaly at epoch: 330.3841°
orbit number at epoch: 46591

The dashed part of the orbit path shows where the satellite is in the earth's shadow,  

DLR